Time,TemperatureF,DewpointF,PressureIn,WindDirection,WindDirectionDegrees,WindSpeedMPH,WindSpeedGustMPH,Humidity,HourlyPrecipIn,Conditions,Clouds,dailyrainin,SoftwareType,DateUTC
2013-05-03 00:14:00,33.6,31.5,30.31,NNW,337,28.4,-999.0,92,-99.99,,,0.00,Acu-Link.com,2013-05-03 04:14:00,
2013-05-03 00:29:00,33.4,31.9,30.29,NNW,337,26.4,-999.0,94,-99.99,,,0.00,Acu-Link.com,2013-05-03 04:29:00,
2013-05-03 00:45:00,33.6,32.1,30.29,NNW,337,23.8,-999.0,94,-99.99,,,0.01,Acu-Link.com,2013-05-03 04:45:00,
2013-05-03 01:00:00,33.4,31.6,30.29,NNE,22,26.4,-999.0,93,-99.99,,,0.01,Acu-Link.com,2013-05-03 05:00:00,
2013-05-03 01:15:00,33.3,31.5,30.27,NNW,337,27.4,-999.0,93,-99.99,,,0.01,Acu-Link.com,2013-05-03 05:15:00,
2013-05-03 01:31:00,33.4,31.9,30.27,NNE,22,26.9,-999.0,94,-99.99,,,0.01,Acu-Link.com,2013-05-03 05:31:00,
2013-05-03 01:46:00,33.6,32.1,30.26,NNW,337,26.4,-999.0,94,-99.99,,,0.01,Acu-Link.com,2013-05-03 05:46:00,
2013-05-03 02:01:00,33.6,32.1,30.26,NNW,337,27.4,-999.0,94,-99.99,,,0.01,Acu-Link.com,2013-05-03 06:01:00,
2013-05-03 02:16:00,33.4,31.9,30.26,NNW,337,24.3,-999.0,94,-99.99,,,0.01,Acu-Link.com,2013-05-03 06:16:00,
2013-05-03 02:32:00,33.6,31.8,30.26,NNW,337,25.8,-999.0,93,-99.99,,,0.01,Acu-Link.com,2013-05-03 06:32:00,
2013-05-03 02:47:00,33.3,31.8,30.26,NNW,337,25.8,-999.0,94,-99.99,,,0.02,Acu-Link.com,2013-05-03 06:47:00,
2013-05-03 03:02:00,33.3,31.8,30.25,NNW,337,23.8,-999.0,94,-99.99,,,0.03,Acu-Link.com,2013-05-03 07:02:00,
2013-05-03 03:18:00,33.3,32.0,30.25,NNW,337,22.2,-999.0,95,-99.99,,,0.05,Acu-Link.com,2013-05-03 07:18:00,
2013-05-03 03:33:00,33.3,32.3,30.25,NNW,337,24.8,-999.0,96,-99.99,,,0.05,Acu-Link.com,2013-05-03 07:33:00,
2013-05-03 03:48:00,33.1,31.6,30.23,NNW,337,22.7,-999.0,94,-99.99,,,0.06,Acu-Link.com,2013-05-03 07:48:00,
2013-05-03 04:04:00,33.1,31.6,30.24,NNW,337,25.8,-999.0,94,-99.99,,,0.06,Acu-Link.com,2013-05-03 08:04:00,
2013-05-03 04:19:00,33.3,32.0,30.23,NNW,337,26.4,-999.0,95,-99.99,,,0.06,Acu-Link.com,2013-05-03 08:19:00,
2013-05-03 04:34:00,33.3,31.8,30.23,North,0,25.8,-999.0,94,-99.99,,,0.06,Acu-Link.com,2013-05-03 08:34:00,
2013-05-03 04:49:00,33.3,31.8,30.23,NNW,337,23.8,-999.0,94,-99.99,,,0.06,Acu-Link.com,2013-05-03 08:49:00,
2013-05-03 05:05:00,33.3,31.8,30.22,NNW,337,19.7,-999.0,94,-99.99,,,0.06,Acu-Link.com,2013-05-03 09:05:00,
2013-05-03 05:20:00,33.4,31.9,30.23,NNW,337,21.2,-999.0,94,-99.99,,,0.06,Acu-Link.com,2013-05-03 09:20:00,
2013-05-03 05:35:00,33.6,32.1,30.23,NNW,337,22.7,-999.0,94,-99.99,,,0.06,Acu-Link.com,2013-05-03 09:35:00,
2013-05-03 05:50:00,33.4,31.9,30.21,NNW,337,21.7,-999.0,94,-99.99,,,0.06,Acu-Link.com,2013-05-03 09:50:00,
2013-05-03 06:06:00,33.6,32.3,30.21,NNW,337,21.2,-999.0,95,-99.99,,,0.06,Acu-Link.com,2013-05-03 10:06:00,
2013-05-03 06:21:00,33.8,32.5,30.21,NNW,337,18.1,-999.0,95,-99.99,,,0.06,Acu-Link.com,2013-05-03 10:21:00,
2013-05-03 06:36:00,33.8,32.5,30.21,NNW,337,18.6,-999.0,95,-99.99,,,0.06,Acu-Link.com,2013-05-03 10:36:00,
2013-05-03 06:51:00,33.8,32.5,30.20,NNW,337,22.2,-999.0,95,-99.99,,,0.06,Acu-Link.com,2013-05-03 10:51:00,
2013-05-03 07:07:00,34.0,33.0,30.20,NNW,337,22.2,-999.0,96,-99.99,,,0.06,Acu-Link.com,2013-05-03 11:07:00,
2013-05-03 07:22:00,33.8,32.8,30.19,NNW,337,17.6,-999.0,96,-99.99,,,0.06,Acu-Link.com,2013-05-03 11:22:00,
2013-05-03 07:37:00,34.0,32.7,30.19,North,0,21.2,-999.0,95,-99.99,,,0.06,Acu-Link.com,2013-05-03 11:37:00,
2013-05-03 07:53:00,34.2,32.7,30.20,NNW,337,19.7,-999.0,94,-99.99,,,0.06,Acu-Link.com,2013-05-03 11:53:00,
2013-05-03 08:08:00,34.2,32.9,30.19,NNW,337,20.2,-999.0,95,-99.99,,,0.06,Acu-Link.com,2013-05-03 12:08:00,
2013-05-03 08:23:00,34.3,32.8,30.20,North,0,18.6,-999.0,94,-99.99,,,0.06,Acu-Link.com,2013-05-03 12:23:00,
2013-05-03 08:38:00,34.3,32.8,30.19,NNW,337,18.6,-999.0,94,-99.99,,,0.06,Acu-Link.com,2013-05-03 12:38:00,
2013-05-03 08:53:00,34.3,32.8,30.19,NNW,337,18.6,-999.0,94,-99.99,,,0.06,Acu-Link.com,2013-05-03 12:53:00,
2013-05-03 09:08:00,34.3,33.0,30.19,NNW,337,16.1,-999.0,95,-99.99,,,0.06,Acu-Link.com,2013-05-03 13:08:00,
2013-05-03 09:23:00,34.3,33.0,30.19,NNW,337,18.6,-999.0,95,-99.99,,,0.06,Acu-Link.com,2013-05-03 13:23:00,
2013-05-03 09:38:00,34.3,32.8,30.19,NNW,337,15.0,-999.0,94,-99.99,,,0.06,Acu-Link.com,2013-05-03 13:38:00,
2013-05-03 09:53:00,34.2,32.7,30.19,NNW,337,18.6,-999.0,94,-99.99,,,0.06,Acu-Link.com,2013-05-03 13:53:00,
2013-05-03 10:08:00,34.3,33.0,30.18,NNW,337,17.6,-999.0,95,-99.99,,,0.06,Acu-Link.com,2013-05-03 14:08:00,
2013-05-03 10:23:00,34.5,33.2,30.18,NNW,337,17.6,-999.0,95,-99.99,,,0.06,Acu-Link.com,2013-05-03 14:23:00,
2013-05-03 10:38:00,34.5,33.0,30.18,NNW,337,15.0,-999.0,94,-99.99,,,0.06,Acu-Link.com,2013-05-03 14:38:00,
2013-05-03 10:53:00,34.7,33.2,30.18,NNW,337,15.0,-999.0,94,-99.99,,,0.06,Acu-Link.com,2013-05-03 14:53:00,
2013-05-03 11:08:00,34.9,32.8,30.18,NNE,22,14.5,-999.0,92,-99.99,,,0.06,Acu-Link.com,2013-05-03 15:08:00,
2013-05-03 11:23:00,35.2,33.4,30.17,North,0,15.5,-999.0,93,-99.99,,,0.06,Acu-Link.com,2013-05-03 15:23:00,
2013-05-03 11:39:00,35.6,33.2,30.17,North,0,14.5,-999.0,91,-99.99,,,0.06,Acu-Link.com,2013-05-03 15:39:00,
2013-05-03 11:54:00,35.8,33.2,30.17,NNE,22,16.1,-999.0,90,-99.99,,,0.06,Acu-Link.com,2013-05-03 15:54:00,
2013-05-03 12:09:00,36.1,33.5,30.17,North,0,15.0,-999.0,90,-99.99,,,0.06,Acu-Link.com,2013-05-03 16:09:00,
2013-05-03 12:24:00,36.0,33.4,30.16,North,0,15.0,-999.0,90,-99.99,,,0.06,Acu-Link.com,2013-05-03 16:24:00,
2013-05-03 12:39:00,36.9,33.4,30.17,NNE,22,15.0,-999.0,87,-99.99,,,0.06,Acu-Link.com,2013-05-03 16:39:00,
2013-05-03 12:54:00,36.7,33.2,30.16,NNE,22,14.5,-999.0,87,-99.99,,,0.06,Acu-Link.com,2013-05-03 16:54:00,
2013-05-03 13:09:00,36.9,33.4,30.16,NNE,22,13.0,-999.0,87,-99.99,,,0.06,Acu-Link.com,2013-05-03 17:09:00,
2013-05-03 13:24:00,36.1,32.9,30.16,NNE,22,13.5,-999.0,88,-99.99,,,0.06,Acu-Link.com,2013-05-03 17:24:00,
2013-05-03 13:39:00,36.7,33.8,30.15,NNW,337,14.5,-999.0,89,-99.99,,,0.06,Acu-Link.com,2013-05-03 17:39:00,
2013-05-03 13:54:00,36.0,33.4,30.15,North,0,15.0,-999.0,90,-99.99,,,0.06,Acu-Link.com,2013-05-03 17:54:00,
2013-05-03 14:09:00,36.3,33.4,30.15,NNE,22,13.5,-999.0,89,-99.99,,,0.06,Acu-Link.com,2013-05-03 18:09:00,
2013-05-03 14:25:00,36.1,33.7,30.15,North,0,13.5,-999.0,91,-99.99,,,0.06,Acu-Link.com,2013-05-03 18:25:00,
2013-05-03 14:40:00,36.1,33.5,30.15,NNE,22,15.5,-999.0,90,-99.99,,,0.06,Acu-Link.com,2013-05-03 18:40:00,
2013-05-03 14:55:00,36.1,33.2,30.15,NNE,22,15.0,-999.0,89,-99.99,,,0.06,Acu-Link.com,2013-05-03 18:55:00,
2013-05-03 15:10:00,36.0,33.4,30.14,NNE,22,15.0,-999.0,90,-99.99,,,0.06,Acu-Link.com,2013-05-03 19:10:00,
2013-05-03 15:25:00,36.0,33.4,30.15,NNE,22,15.5,-999.0,90,-99.99,,,0.06,Acu-Link.com,2013-05-03 19:25:00,
2013-05-03 15:40:00,36.1,33.5,30.14,North,0,14.5,-999.0,90,-99.99,,,0.06,Acu-Link.com,2013-05-03 19:40:00,
2013-05-03 15:55:00,36.1,33.5,30.15,NNE,22,14.5,-999.0,90,-99.99,,,0.06,Acu-Link.com,2013-05-03 19:55:00,
2013-05-03 16:10:00,36.1,33.7,30.14,North,0,14.5,-999.0,91,-99.99,,,0.06,Acu-Link.com,2013-05-03 20:10:00,
2013-05-03 16:25:00,36.3,33.7,30.14,North,0,16.1,-999.0,90,-99.99,,,0.06,Acu-Link.com,2013-05-03 20:25:00,
2013-05-03 16:40:00,36.0,33.6,30.13,North,0,14.5,-999.0,91,-99.99,,,0.06,Acu-Link.com,2013-05-03 20:40:00,
2013-05-03 16:55:00,36.0,33.4,30.13,North,0,16.1,-999.0,90,-99.99,,,0.06,Acu-Link.com,2013-05-03 20:55:00,
2013-05-03 17:10:00,36.0,33.4,30.13,NNW,337,17.1,-999.0,90,-99.99,,,0.06,Acu-Link.com,2013-05-03 21:10:00,
2013-05-03 17:25:00,35.8,33.4,30.12,NNW,337,18.1,-999.0,91,-99.99,,,0.06,Acu-Link.com,2013-05-03 21:25:00,
2013-05-03 17:40:00,35.6,33.5,30.12,NNW,337,17.1,-999.0,92,-99.99,,,0.06,Acu-Link.com,2013-05-03 21:40:00,
2013-05-03 17:55:00,35.4,33.3,30.13,North,0,16.1,-999.0,92,-99.99,,,0.06,Acu-Link.com,2013-05-03 21:55:00,
2013-05-03 18:10:00,35.4,33.6,30.12,NNW,337,13.5,-999.0,93,-99.99,,,0.06,Acu-Link.com,2013-05-03 22:10:00,
2013-05-03 18:25:00,35.6,34.0,30.12,NNW,337,15.5,-999.0,94,-99.99,,,0.06,Acu-Link.com,2013-05-03 22:25:00,
2013-05-03 18:40:00,35.4,33.8,30.13,NNW,337,15.5,-999.0,94,-99.99,,,0.06,Acu-Link.com,2013-05-03 22:40:00,
2013-05-03 18:55:00,35.4,33.8,30.12,NNW,337,16.1,-999.0,94,-99.99,,,0.06,Acu-Link.com,2013-05-03 22:55:00,
2013-05-03 19:10:00,35.1,33.6,30.12,NNW,337,16.1,-999.0,94,-99.99,,,0.06,Acu-Link.com,2013-05-03 23:10:00,
2013-05-03 19:25:00,35.1,33.8,30.11,NNW,337,15.5,-999.0,95,-99.99,,,0.06,Acu-Link.com,2013-05-03 23:25:00,
2013-05-03 19:40:00,35.2,33.9,30.11,NNW,337,15.0,-999.0,95,-99.99,,,0.06,Acu-Link.com,2013-05-03 23:40:00,
2013-05-03 19:55:00,35.1,33.8,30.11,NNW,337,15.0,-999.0,95,-99.99,,,0.06,Acu-Link.com,2013-05-03 23:55:00,
2013-05-03 20:10:00,35.1,33.8,30.11,NNW,337,14.5,-999.0,95,-99.99,,,0.06,Acu-Link.com,2013-05-04 00:10:00,
2013-05-03 20:25:00,35.1,33.6,30.11,NNW,337,18.1,-999.0,94,-99.99,,,0.06,Acu-Link.com,2013-05-04 00:25:00,
2013-05-03 20:40:00,35.1,33.8,30.11,NNW,337,14.0,-999.0,95,-99.99,,,0.06,Acu-Link.com,2013-05-04 00:40:00,
2013-05-03 20:55:00,34.9,33.4,30.11,NNW,337,14.0,-999.0,94,-99.99,,,0.06,Acu-Link.com,2013-05-04 00:55:00,
2013-05-03 21:10:00,34.9,33.4,30.11,NNW,337,19.1,-999.0,94,-99.99,,,0.06,Acu-Link.com,2013-05-04 01:10:00,
2013-05-03 21:25:00,34.9,33.4,30.11,NNW,337,16.6,-999.0,94,-99.99,,,0.06,Acu-Link.com,2013-05-04 01:25:00,
2013-05-03 21:40:00,35.1,33.8,30.11,NNW,337,17.1,-999.0,95,-99.99,,,0.06,Acu-Link.com,2013-05-04 01:40:00,
2013-05-03 21:55:00,35.1,33.6,30.12,NNW,337,17.6,-999.0,94,-99.99,,,0.06,Acu-Link.com,2013-05-04 01:55:00,
2013-05-03 22:10:00,35.1,33.8,30.12,NNW,337,16.1,-999.0,95,-99.99,,,0.06,Acu-Link.com,2013-05-04 02:10:00,
2013-05-03 22:25:00,35.1,33.8,30.12,NNW,337,17.6,-999.0,95,-99.99,,,0.06,Acu-Link.com,2013-05-04 02:25:00,
2013-05-03 22:41:00,35.1,33.8,30.12,NW,315,15.5,-999.0,95,-99.99,,,0.06,Acu-Link.com,2013-05-04 02:41:00,
2013-05-03 22:56:00,35.1,34.1,30.12,NNW,337,14.0,-999.0,96,-99.99,,,0.06,Acu-Link.com,2013-05-04 02:56:00,
2013-05-03 23:11:00,35.1,33.8,30.12,NNW,337,14.0,-999.0,95,-99.99,,,0.06,Acu-Link.com,2013-05-04 03:11:00,
2013-05-03 23:26:00,35.1,33.8,30.12,NNW,337,13.5,-999.0,95,-99.99,,,0.06,Acu-Link.com,2013-05-04 03:26:00,
2013-05-03 23:41:00,34.9,33.6,30.13,NNW,337,12.5,-999.0,95,-99.99,,,0.06,Acu-Link.com,2013-05-04 03:41:00,
2013-05-03 23:56:00,34.9,33.9,30.13,NNW,337,10.9,-999.0,96,-99.99,,,0.08,Acu-Link.com,2013-05-04 03:56:00,